RYR58SV LCPH-LIME

Flight info

Callsign RYR58SV
Flight time 3h 20m
Altitude 36000
Route GENOS DCT TOSKA UM978 VAXOS DCT SOTIX UL53 AKORO DCT KUGGI/N0446F380 DCT IXONI DCT KRK UL995 TIGRA DCT DAMIC DCT OFZUD DCT LANNO DCT TUFTE DCT LOMED DCT IPLUB DCT OSBUL
Aircraft B38M/M-SADE3FGILRWY/SB1

Departure

Time 2026-05-05 23:49
Airport Paphos International Airport (LCPH)

Arrival

Time 2026-05-06 03:10
Airport Il Caravaggio International Airport (LIME)
Time Latitude Longitude Altitude Speed Heading
2026-05-05 22:53 34.71406 32.48919 48 ft 0 kts 155°
2026-05-05 23:40 34.71411 32.48916 48 ft 3 kts 155°
2026-05-05 23:40 34.71435 32.48903 46 ft 4 kts 155°
2026-05-05 23:40 34.71458 32.48890 46 ft 4 kts 154°
2026-05-05 23:41 34.71475 32.48872 48 ft 4 kts 103°
2026-05-05 23:41 34.71471 32.48843 46 ft 3 kts 66°
2026-05-05 23:41 34.71468 32.48834 45 ft 0 kts 66°
2026-05-05 23:45 34.71468 32.48836 45 ft 1 kts 66°
2026-05-05 23:45 34.71478 32.48862 48 ft 7 kts 65°
2026-05-05 23:45 34.71518 32.48944 48 ft 16 kts 53°
2026-05-05 23:46 34.71622 32.49024 48 ft 18 kts 54°
2026-05-05 23:46 34.71605 32.49174 50 ft 20 kts 109°
2026-05-05 23:46 34.71555 32.49342 44 ft 23 kts 110°
2026-05-05 23:46 34.71498 32.49529 43 ft 24 kts 110°
2026-05-05 23:47 34.71445 32.49703 46 ft 20 kts 113°
2026-05-05 23:47 34.71371 32.49806 46 ft 15 kts 107°
2026-05-05 23:47 34.71379 32.49839 47 ft 2 kts 39°
2026-05-05 23:47 34.71395 32.49838 47 ft 3 kts 333°
2026-05-05 23:48 34.71413 32.49810 46 ft 6 kts 294°
2026-05-05 23:48 34.71419 32.49792 46 ft 0 kts 290°
2026-05-05 23:48 34.71428 32.49761 46 ft 20 kts 290°
2026-05-05 23:49 34.71575 32.49289 48 ft 97 kts 290°
2026-05-05 23:49 34.71889 32.48257 45 ft 160 kts 290°
2026-05-05 23:49 34.72300 32.46887 486 ft 178 kts 292°
2026-05-05 23:49 34.72701 32.45423 1193 ft 191 kts 282°
2026-05-05 23:50 34.72610 32.43819 2008 ft 193 kts 254°
2026-05-05 23:50 34.72148 32.42316 2944 ft 189 kts 251°
2026-05-05 23:50 34.71732 32.40775 3493 ft 208 kts 254°
2026-05-05 23:50 34.71457 32.39637 3920 ft 215 kts 256°
2026-05-05 23:51 34.70865 32.37155 4744 ft 242 kts 254°
2026-05-05 23:51 34.70545 32.35815 5141 ft 255 kts 254°
2026-05-05 23:51 34.70038 32.33673 5803 ft 271 kts 254°
2026-05-05 23:51 34.69346 32.30755 7135 ft 272 kts 254°
2026-05-05 23:52 34.68989 32.29256 7778 ft 274 kts 254°
2026-05-05 23:52 34.68285 32.26292 9056 ft 276 kts 254°
2026-05-05 23:52 34.67931 32.24799 9663 ft 279 kts 254°
2026-05-05 23:52 34.67388 32.22518 10424 ft 287 kts 254°
2026-05-05 23:53 34.66817 32.20113 10838 ft 306 kts 254°
2026-05-05 23:53 34.66237 32.17575 11328 ft 319 kts 259°
2026-05-05 23:53 34.66222 32.14876 12139 ft 320 kts 275°
2026-05-05 23:53 34.66391 32.12161 12899 ft 325 kts 274°
2026-05-05 23:54 34.66565 32.09418 13706 ft 327 kts 274°
2026-05-05 23:54 34.66750 32.06651 14425 ft 329 kts 275°
2026-05-05 23:54 34.66939 32.03875 15149 ft 330 kts 275°
2026-05-05 23:54 34.67131 32.01091 15836 ft 332 kts 275°
2026-05-05 23:55 34.67325 31.98285 16503 ft 334 kts 274°
2026-05-05 23:55 34.67520 31.95467 17174 ft 336 kts 274°
2026-05-05 23:55 34.67715 31.92629 17823 ft 338 kts 274°
2026-05-05 23:55 34.67964 31.89780 18425 ft 341 kts 280°
2026-05-05 23:56 34.68453 31.86967 18965 ft 343 kts 280°
2026-05-05 23:56 34.68923 31.84154 19490 ft 344 kts 280°
2026-05-05 23:56 34.69390 31.81285 20021 ft 346 kts 280°
2026-05-05 23:56 34.69852 31.78406 20544 ft 349 kts 280°
2026-05-05 23:57 34.70312 31.75505 21065 ft 351 kts 280°
2026-05-05 23:57 34.70774 31.72583 21586 ft 353 kts 281°
2026-05-05 23:57 34.71236 31.69647 22088 ft 355 kts 281°
2026-05-05 23:57 34.71701 31.66689 22593 ft 357 kts 281°
2026-05-05 23:58 34.72168 31.63715 23106 ft 360 kts 281°
2026-05-05 23:58 34.72637 31.60722 23605 ft 362 kts 281°
2026-05-05 23:58 34.73108 31.57713 24014 ft 364 kts 281°
2026-05-05 23:58 34.73581 31.54679 24441 ft 366 kts 281°
2026-05-05 23:59 34.74058 31.51619 24868 ft 368 kts 281°
2026-05-05 23:59 34.74530 31.48591 25263 ft 370 kts 282°
2026-05-05 23:59 34.75009 31.45505 25670 ft 371 kts 282°
2026-05-05 23:59 34.75488 31.42415 26122 ft 372 kts 282°
2026-05-06 00:00 34.75968 31.39312 26486 ft 375 kts 282°
2026-05-06 00:00 34.76451 31.36185 26877 ft 377 kts 282°
2026-05-06 00:00 34.76937 31.33034 27250 ft 380 kts 282°
2026-05-06 00:00 34.77424 31.29870 27616 ft 382 kts 282°
2026-05-06 00:01 34.77912 31.26696 27983 ft 384 kts 282°
2026-05-06 00:01 34.78405 31.23481 28325 ft 387 kts 282°
2026-05-06 00:01 34.78900 31.20252 28663 ft 389 kts 282°
2026-05-06 00:01 34.79397 31.17002 29005 ft 392 kts 282°
2026-05-06 00:02 34.79894 31.13744 29350 ft 394 kts 282°
2026-05-06 00:02 34.80394 31.10454 29684 ft 396 kts 282°
2026-05-06 00:02 34.80896 31.07153 30014 ft 398 kts 282°
2026-05-06 00:02 34.81400 31.03833 30295 ft 400 kts 282°
2026-05-06 00:03 34.81900 31.00528 30562 ft 402 kts 282°
2026-05-06 00:03 34.82406 30.97180 30835 ft 404 kts 282°
2026-05-06 00:03 34.82915 30.93808 31090 ft 406 kts 282°
2026-05-06 00:03 34.83425 30.90418 31330 ft 408 kts 282°
2026-05-06 00:04 34.83936 30.87017 31602 ft 410 kts 282°
2026-05-06 00:04 34.84449 30.83594 31888 ft 411 kts 282°
2026-05-06 00:04 34.84961 30.80170 32251 ft 410 kts 282°
2026-05-06 00:04 34.85471 30.76759 32620 ft 409 kts 282°
2026-05-06 00:05 34.86477 30.69996 33333 ft 407 kts 282°
2026-05-06 00:05 34.86986 30.66574 33691 ft 406 kts 282°
2026-05-06 00:05 34.87489 30.63195 34036 ft 405 kts 283°
2026-05-06 00:06 34.88311 30.59980 34314 ft 403 kts 294°
2026-05-06 00:06 34.89479 30.56887 34569 ft 403 kts 294°
2026-05-06 00:06 34.90632 30.53760 34800 ft 403 kts 294°
2026-05-06 00:06 34.91782 30.50638 35056 ft 403 kts 294°
2026-05-06 00:07 34.92929 30.47525 35311 ft 403 kts 294°
2026-05-06 00:07 34.94076 30.44409 35564 ft 402 kts 294°
2026-05-06 00:07 34.95221 30.41294 35797 ft 402 kts 294°
2026-05-06 00:07 34.96348 30.38228 35974 ft 403 kts 294°
2026-05-06 00:08 34.97494 30.35104 36021 ft 404 kts 294°
2026-05-06 00:08 34.99775 30.28878 36012 ft 402 kts 294°
2026-05-06 00:09 35.02058 30.22636 36019 ft 402 kts 294°
2026-05-06 00:09 35.04330 30.16409 36016 ft 402 kts 294°
2026-05-06 00:10 35.06600 30.10179 36022 ft 402 kts 294°
2026-05-06 00:10 35.08870 30.03936 36015 ft 402 kts 294°
2026-05-06 00:11 35.11137 29.97688 36018 ft 402 kts 294°
2026-05-06 00:11 35.13387 29.91474 36018 ft 402 kts 294°
2026-05-06 00:12 35.15647 29.85220 36020 ft 402 kts 294°
2026-05-06 00:12 35.17900 29.78975 36008 ft 402 kts 294°
2026-05-06 00:13 35.20151 29.72719 36011 ft 402 kts 294°
2026-05-06 00:13 35.22401 29.66458 36011 ft 402 kts 294°
2026-05-06 00:14 35.24646 29.60197 36008 ft 402 kts 294°
2026-05-06 00:14 35.26884 29.53943 36010 ft 402 kts 294°
2026-05-06 00:15 35.29122 29.47678 36014 ft 402 kts 294°
2026-05-06 00:15 35.31357 29.41405 36015 ft 402 kts 294°
2026-05-06 00:16 35.33575 29.35170 36037 ft 402 kts 294°
2026-05-06 00:16 35.35803 29.28893 36011 ft 402 kts 294°
2026-05-06 00:17 35.38031 29.22608 36002 ft 402 kts 295°
2026-05-06 00:17 35.40255 29.16313 36009 ft 402 kts 295°
2026-05-06 00:18 35.42468 29.10043 36012 ft 402 kts 295°
2026-05-06 00:18 35.44686 29.03745 36020 ft 402 kts 295°
2026-05-06 00:19 35.46899 28.97448 36015 ft 402 kts 295°
2026-05-06 00:19 35.49113 28.91134 36012 ft 402 kts 295°
2026-05-06 00:20 35.51315 28.84841 36012 ft 401 kts 295°
2026-05-06 00:20 35.53513 28.78549 36015 ft 401 kts 295°
2026-05-06 00:21 35.55709 28.72251 36017 ft 401 kts 295°
2026-05-06 00:21 35.57900 28.65952 36019 ft 401 kts 295°
2026-05-06 00:22 35.60070 28.59701 36013 ft 399 kts 295°
2026-05-06 00:22 35.62246 28.53420 36021 ft 399 kts 295°
2026-05-06 00:23 35.64419 28.47133 36019 ft 399 kts 295°
2026-05-06 00:23 35.66584 28.40859 36027 ft 399 kts 295°
2026-05-06 00:24 35.68751 28.34568 36015 ft 399 kts 295°
2026-05-06 00:24 35.70904 28.28301 36026 ft 397 kts 295°
2026-05-06 00:25 35.73038 28.22078 36025 ft 397 kts 295°
2026-05-06 00:25 35.75183 28.15811 36025 ft 397 kts 295°
2026-05-06 00:26 35.77322 28.09547 36027 ft 397 kts 295°
2026-05-06 00:26 35.79461 28.03274 36027 ft 396 kts 296°
2026-05-06 00:27 35.81581 27.97040 36028 ft 394 kts 296°
2026-05-06 00:27 35.83696 27.90806 36031 ft 394 kts 295°
2026-05-06 00:28 35.85805 27.84580 36032 ft 394 kts 295°
2026-05-06 00:28 35.87916 27.78338 36034 ft 394 kts 295°
2026-05-06 00:29 35.90022 27.72092 36031 ft 394 kts 295°
2026-05-06 00:29 35.92126 27.65844 36037 ft 394 kts 295°
2026-05-06 00:30 35.94214 27.59629 36039 ft 394 kts 295°
2026-05-06 00:30 35.96305 27.53391 36043 ft 394 kts 295°
2026-05-06 00:31 35.98399 27.47130 36031 ft 394 kts 295°
2026-05-06 00:31 36.00484 27.40887 36040 ft 393 kts 295°
2026-05-06 00:32 36.02562 27.34649 36039 ft 393 kts 295°
2026-05-06 00:32 36.04632 27.28422 36043 ft 393 kts 295°
2026-05-06 00:33 36.06705 27.22175 36049 ft 393 kts 295°
2026-05-06 00:33 36.08776 27.15921 36024 ft 392 kts 295°
2026-05-06 00:34 36.10826 27.09713 36043 ft 392 kts 295°
2026-05-06 00:34 36.12887 27.03465 36044 ft 392 kts 295°
2026-05-06 00:35 36.14938 26.97230 36050 ft 392 kts 295°
2026-05-06 00:35 36.16993 26.90970 36051 ft 392 kts 295°
2026-05-06 00:36 36.19042 26.84715 36064 ft 392 kts 295°
2026-05-06 00:36 36.21083 26.78474 36053 ft 390 kts 295°
2026-05-06 00:37 36.23103 26.72282 36056 ft 391 kts 295°
2026-05-06 00:37 36.25138 26.66031 36052 ft 391 kts 295°
2026-05-06 00:38 36.26828 26.60831 36050 ft 391 kts 295°
2026-05-06 00:38 36.28856 26.54576 36033 ft 391 kts 295°
2026-05-06 00:39 36.30880 26.48322 36056 ft 390 kts 295°
2026-05-06 00:39 36.32895 26.42084 36045 ft 390 kts 295°
2026-05-06 00:40 36.34896 26.35873 36058 ft 390 kts 295°
2026-05-06 00:40 36.36908 26.29614 36056 ft 390 kts 295°
2026-05-06 00:41 36.38916 26.23356 36039 ft 390 kts 295°
2026-05-06 00:41 36.40925 26.17084 36056 ft 391 kts 295°
2026-05-06 00:42 36.42928 26.10813 36059 ft 391 kts 295°
2026-05-06 00:42 36.44931 26.04531 36049 ft 391 kts 295°
2026-05-06 00:43 36.46931 25.98244 36056 ft 391 kts 295°
2026-05-06 00:43 36.48914 25.91995 36035 ft 392 kts 294°
2026-05-06 00:44 36.50913 25.85685 36051 ft 393 kts 294°
2026-05-06 00:44 36.52912 25.79362 36050 ft 393 kts 294°
2026-05-06 00:45 36.54908 25.73032 36049 ft 393 kts 294°
2026-05-06 00:45 36.56900 25.66701 36048 ft 393 kts 294°
2026-05-06 00:46 36.58892 25.60357 36041 ft 394 kts 294°
2026-05-06 00:46 36.60879 25.54015 36045 ft 394 kts 294°
2026-05-06 00:47 36.62855 25.47692 36045 ft 394 kts 294°
2026-05-06 00:47 36.64842 25.41334 36045 ft 394 kts 295°
2026-05-06 00:47 36.66185 25.38391 36042 ft 388 kts 308°
2026-05-06 00:48 36.67779 25.35665 36012 ft 391 kts 306°
2026-05-06 00:48 36.70883 25.30102 36036 ft 392 kts 306°
2026-05-06 00:49 36.73994 25.24534 36041 ft 392 kts 306°
2026-05-06 00:49 36.77109 25.18955 36042 ft 392 kts 306°
2026-05-06 00:50 36.80203 25.13403 36048 ft 392 kts 306°
2026-05-06 00:50 36.83313 25.07813 36060 ft 392 kts 306°
2026-05-06 00:51 36.86412 25.02235 36049 ft 391 kts 306°
2026-05-06 00:51 36.89514 24.96640 36048 ft 392 kts 306°
2026-05-06 00:52 36.92624 24.91023 36049 ft 393 kts 306°
2026-05-06 00:52 36.95729 24.85405 36048 ft 393 kts 306°
2026-05-06 00:53 36.98829 24.79786 36046 ft 393 kts 305°
2026-05-06 00:53 37.01927 24.74162 36048 ft 393 kts 305°
2026-05-06 00:54 37.05010 24.68557 36048 ft 393 kts 305°
2026-05-06 00:54 37.08107 24.62916 36048 ft 393 kts 305°
2026-05-06 00:55 37.11201 24.57270 36050 ft 393 kts 305°
2026-05-06 00:55 37.14284 24.51637 36055 ft 393 kts 305°
2026-05-06 00:56 37.17374 24.45982 36056 ft 392 kts 305°
2026-05-06 00:56 37.20438 24.40369 36052 ft 393 kts 306°
2026-05-06 00:57 37.23803 24.34961 36048 ft 394 kts 309°
2026-05-06 00:57 37.27179 24.29519 36050 ft 395 kts 308°
2026-05-06 00:58 37.30540 24.24075 36048 ft 395 kts 308°
2026-05-06 00:58 37.33899 24.18624 36048 ft 395 kts 308°
2026-05-06 00:59 37.37261 24.13159 36048 ft 395 kts 308°
2026-05-06 00:59 37.40598 24.07726 36048 ft 395 kts 308°
2026-05-06 01:00 37.43953 24.02255 36049 ft 395 kts 308°
2026-05-06 01:00 37.47307 23.96775 36051 ft 395 kts 308°
2026-05-06 01:01 37.50659 23.91290 36049 ft 395 kts 308°
2026-05-06 01:01 37.54009 23.85799 36064 ft 396 kts 308°
2026-05-06 01:02 37.57370 23.80282 36253 ft 396 kts 308°
2026-05-06 01:02 37.59051 23.77519 36495 ft 397 kts 308°
2026-05-06 01:02 37.60703 23.74801 36687 ft 397 kts 308°
2026-05-06 01:02 37.62380 23.72039 36941 ft 396 kts 308°
2026-05-06 01:03 37.64061 23.69270 37199 ft 395 kts 308°
2026-05-06 01:03 37.65732 23.66514 37431 ft 395 kts 308°
2026-05-06 01:03 37.67403 23.63756 37668 ft 394 kts 308°
2026-05-06 01:03 37.69069 23.61004 37905 ft 393 kts 308°
2026-05-06 01:04 37.70709 23.58292 38066 ft 393 kts 308°
2026-05-06 01:04 37.74023 23.52807 38053 ft 391 kts 308°
2026-05-06 01:05 37.77315 23.47349 38061 ft 391 kts 308°
2026-05-06 01:05 37.80393 23.41687 38055 ft 391 kts 300°
2026-05-06 01:06 37.83054 23.35665 38053 ft 393 kts 301°
2026-05-06 01:06 37.85707 23.29618 38059 ft 393 kts 300°
2026-05-06 01:07 37.88335 23.23609 38075 ft 393 kts 300°
2026-05-06 01:07 37.90986 23.17534 38070 ft 394 kts 300°
2026-05-06 01:08 37.93636 23.11450 38064 ft 395 kts 300°
2026-05-06 01:08 37.96288 23.05351 38073 ft 396 kts 300°
2026-05-06 01:09 37.98945 22.99228 38056 ft 396 kts 300°
2026-05-06 01:09 38.01588 22.93123 38093 ft 397 kts 300°
2026-05-06 01:10 38.04243 22.86981 38068 ft 396 kts 300°
2026-05-06 01:10 38.06888 22.80850 38075 ft 396 kts 300°
2026-05-06 01:11 38.09515 22.74749 38078 ft 396 kts 300°
2026-05-06 01:11 38.12146 22.68627 38081 ft 395 kts 300°
2026-05-06 01:12 38.14779 22.62486 38074 ft 395 kts 300°
2026-05-06 01:12 38.17406 22.56352 38083 ft 395 kts 300°
2026-05-06 01:13 38.20033 22.50203 38082 ft 395 kts 300°
2026-05-06 01:13 38.22636 22.44097 38068 ft 395 kts 300°
2026-05-06 01:14 38.26563 22.34867 38084 ft 396 kts 300°
2026-05-06 01:14 38.29185 22.28690 38094 ft 396 kts 300°
2026-05-06 01:15 38.31899 22.22580 38085 ft 396 kts 307°
2026-05-06 01:15 38.35108 22.16859 38089 ft 397 kts 305°
2026-05-06 01:16 38.38242 22.11063 38097 ft 398 kts 305°
2026-05-06 01:16 38.41386 22.05213 38108 ft 400 kts 304°
2026-05-06 01:17 38.44525 21.99357 38113 ft 400 kts 305°
2026-05-06 01:17 38.47651 21.93514 38115 ft 400 kts 305°
2026-05-06 01:18 38.50782 21.87650 38122 ft 400 kts 305°
2026-05-06 01:18 38.53920 21.81763 38122 ft 400 kts 305°
2026-05-06 01:19 38.57054 21.75873 38113 ft 401 kts 304°
2026-05-06 01:19 38.60199 21.69953 38119 ft 403 kts 304°
2026-05-06 01:20 38.63340 21.64028 38124 ft 402 kts 304°
2026-05-06 01:20 38.66457 21.58139 38116 ft 403 kts 304°
2026-05-06 01:21 38.69590 21.52208 38139 ft 402 kts 304°
2026-05-06 01:21 38.72721 21.46270 38128 ft 402 kts 304°
2026-05-06 01:22 38.75846 21.40333 38116 ft 402 kts 304°
2026-05-06 01:22 38.78964 21.34398 38120 ft 402 kts 304°
2026-05-06 01:23 38.82083 21.28450 38125 ft 402 kts 304°
2026-05-06 01:23 38.85205 21.22486 38120 ft 402 kts 304°
2026-05-06 01:24 38.88316 21.16532 38123 ft 402 kts 304°
2026-05-06 01:24 38.91428 21.10564 38118 ft 402 kts 304°
2026-05-06 01:25 38.94531 21.04603 38122 ft 402 kts 304°
2026-05-06 01:25 38.97615 20.98668 38146 ft 402 kts 304°
2026-05-06 01:26 39.00724 20.92674 38129 ft 402 kts 304°
2026-05-06 01:26 39.03298 20.87700 38129 ft 402 kts 304°
2026-05-06 01:27 39.06395 20.81708 38127 ft 402 kts 304°
2026-05-06 01:27 39.09482 20.75724 38124 ft 402 kts 304°
2026-05-06 01:28 39.12570 20.69727 38123 ft 402 kts 303°
2026-05-06 01:28 39.15657 20.63721 38126 ft 402 kts 303°
2026-05-06 01:29 39.18748 20.57696 38116 ft 402 kts 303°
2026-05-06 01:29 39.21799 20.51737 38113 ft 402 kts 303°
2026-05-06 01:30 39.24876 20.45715 38101 ft 402 kts 303°
2026-05-06 01:30 39.27957 20.39677 38117 ft 403 kts 303°
2026-05-06 01:31 39.31038 20.33625 38113 ft 403 kts 303°
2026-05-06 01:31 39.34109 20.27582 38115 ft 403 kts 303°
2026-05-06 01:32 39.37176 20.21539 38109 ft 402 kts 303°
2026-05-06 01:32 39.40224 20.15522 38104 ft 402 kts 303°
2026-05-06 01:33 39.43287 20.09464 38097 ft 403 kts 303°
2026-05-06 01:33 39.46618 20.03603 38121 ft 404 kts 307°
2026-05-06 01:34 39.49995 19.97800 38098 ft 404 kts 307°
2026-05-06 01:34 39.53363 19.91971 38101 ft 404 kts 306°
2026-05-06 01:35 39.56732 19.86126 38105 ft 404 kts 306°
2026-05-06 01:35 39.60095 19.80281 38105 ft 404 kts 306°
2026-05-06 01:36 39.63429 19.74478 38107 ft 405 kts 306°
2026-05-06 01:36 39.66794 19.68608 38086 ft 405 kts 306°
2026-05-06 01:37 39.70154 19.62734 38087 ft 405 kts 306°
2026-05-06 01:37 39.73516 19.56849 38087 ft 405 kts 306°
2026-05-06 01:38 39.76874 19.50958 38084 ft 405 kts 306°
2026-05-06 01:38 39.80198 19.45116 38079 ft 405 kts 306°
2026-05-06 01:39 39.83557 19.39203 38085 ft 407 kts 306°
2026-05-06 01:39 39.86918 19.33275 38079 ft 407 kts 306°
2026-05-06 01:40 39.90276 19.27340 38084 ft 407 kts 306°
2026-05-06 01:40 39.93625 19.21410 38080 ft 407 kts 306°
2026-05-06 01:41 39.96979 19.15461 38080 ft 407 kts 306°
2026-05-06 01:41 40.00330 19.09505 38079 ft 407 kts 305°
2026-05-06 01:42 40.03662 19.03575 38080 ft 408 kts 305°
2026-05-06 01:42 40.07019 18.97611 38072 ft 408 kts 305°
2026-05-06 01:43 40.10382 18.91642 38072 ft 408 kts 305°
2026-05-06 01:43 40.13742 18.85667 38071 ft 408 kts 305°
2026-05-06 01:44 40.17096 18.79689 38071 ft 408 kts 305°
2026-05-06 01:44 40.20452 18.73698 38068 ft 408 kts 304°
2026-05-06 01:45 40.23797 18.67716 38058 ft 408 kts 304°
2026-05-06 01:45 40.27143 18.61721 38062 ft 408 kts 304°
2026-05-06 01:46 40.30483 18.55724 38054 ft 408 kts 304°
2026-05-06 01:46 40.33825 18.49711 38052 ft 408 kts 304°
2026-05-06 01:47 40.37137 18.43742 38052 ft 408 kts 304°
2026-05-06 01:47 40.40468 18.37727 38048 ft 408 kts 304°
2026-05-06 01:48 40.43810 18.31683 38050 ft 408 kts 304°
2026-05-06 01:48 40.46922 18.25471 38056 ft 406 kts 298°
2026-05-06 01:49 40.49754 18.19032 38047 ft 407 kts 299°
2026-05-06 01:49 40.52599 18.12668 38048 ft 407 kts 299°
2026-05-06 01:50 40.55474 18.06242 38061 ft 407 kts 299°
2026-05-06 01:50 40.58344 17.99818 38047 ft 407 kts 299°
2026-05-06 01:51 40.61152 17.93516 38048 ft 407 kts 299°
2026-05-06 01:51 40.63992 17.87131 38047 ft 407 kts 299°
2026-05-06 01:52 40.66852 17.80687 38039 ft 407 kts 299°
2026-05-06 01:52 40.69708 17.74239 38042 ft 407 kts 298°
2026-05-06 01:53 40.72563 17.67779 38040 ft 408 kts 298°
2026-05-06 01:53 40.75417 17.61309 38039 ft 408 kts 298°
2026-05-06 01:54 40.78244 17.54885 38037 ft 408 kts 298°
2026-05-06 01:54 40.81086 17.48414 38034 ft 407 kts 298°
2026-05-06 01:55 40.83926 17.41933 38034 ft 408 kts 298°
2026-05-06 01:55 40.86764 17.35442 38034 ft 408 kts 298°
2026-05-06 01:56 40.89601 17.28942 38032 ft 409 kts 298°
2026-05-06 01:56 40.92442 17.22416 38034 ft 409 kts 298°
2026-05-06 01:57 40.95282 17.15881 38029 ft 409 kts 298°
2026-05-06 01:57 40.98094 17.09396 38031 ft 409 kts 298°
2026-05-06 01:58 41.00924 17.02853 38024 ft 409 kts 297°
2026-05-06 01:58 41.03751 16.96303 38026 ft 410 kts 297°
2026-05-06 01:59 41.06577 16.89744 38020 ft 410 kts 297°
2026-05-06 01:59 41.09403 16.83168 38022 ft 410 kts 297°
2026-05-06 02:00 41.12222 16.76597 38022 ft 410 kts 297°
2026-05-06 02:00 41.15033 16.70026 38020 ft 410 kts 297°
2026-05-06 02:01 41.17829 16.63478 38020 ft 410 kts 297°
2026-05-06 02:01 41.20637 16.56888 38027 ft 410 kts 297°
2026-05-06 02:02 41.23439 16.50298 38020 ft 409 kts 297°
2026-05-06 02:02 41.26229 16.43719 38020 ft 409 kts 297°
2026-05-06 02:03 41.29026 16.37112 38010 ft 409 kts 297°
2026-05-06 02:03 41.31818 16.30506 38014 ft 410 kts 296°
2026-05-06 02:04 41.34618 16.23867 38015 ft 411 kts 296°
2026-05-06 02:04 41.37396 16.17272 38013 ft 411 kts 297°
2026-05-06 02:05 41.40280 16.10720 38009 ft 411 kts 297°
2026-05-06 02:05 41.43171 16.04135 38007 ft 411 kts 297°
2026-05-06 02:06 41.46054 15.97548 38011 ft 411 kts 297°
2026-05-06 02:06 41.48943 15.90935 38021 ft 412 kts 297°
2026-05-06 02:07 41.51819 15.84336 38027 ft 412 kts 297°
2026-05-06 02:07 41.54674 15.77770 38022 ft 411 kts 297°
2026-05-06 02:08 41.57546 15.71152 38021 ft 411 kts 297°
2026-05-06 02:08 41.60415 15.64526 38022 ft 411 kts 297°
2026-05-06 02:09 41.63276 15.57903 38017 ft 412 kts 296°
2026-05-06 02:09 41.66137 15.51268 38013 ft 412 kts 296°
2026-05-06 02:10 41.68994 15.44625 38014 ft 412 kts 296°
2026-05-06 02:10 41.71847 15.37975 38004 ft 412 kts 296°
2026-05-06 02:11 41.74682 15.31354 38000 ft 412 kts 296°
2026-05-06 02:11 41.77526 15.24698 37991 ft 413 kts 296°
2026-05-06 02:12 41.80378 15.18007 37994 ft 413 kts 295°
2026-05-06 02:12 41.83225 15.11315 37993 ft 413 kts 295°
2026-05-06 02:13 41.86072 15.04605 37993 ft 413 kts 295°
2026-05-06 02:13 41.88906 14.97910 37992 ft 413 kts 295°
2026-05-06 02:14 41.91745 14.91189 38001 ft 413 kts 295°
2026-05-06 02:14 41.94582 14.84460 37989 ft 414 kts 295°
2026-05-06 02:15 41.97399 14.77760 37996 ft 414 kts 295°
2026-05-06 02:15 42.00227 14.71020 37988 ft 414 kts 295°
2026-05-06 02:16 42.03048 14.64281 37988 ft 414 kts 295°
2026-05-06 02:16 42.05873 14.57517 37996 ft 414 kts 295°
2026-05-06 02:17 42.08693 14.50751 37999 ft 414 kts 295°
2026-05-06 02:17 42.11508 14.43979 37990 ft 414 kts 294°
2026-05-06 02:18 42.14306 14.37233 37990 ft 413 kts 294°
2026-05-06 02:18 42.16633 14.31612 37987 ft 413 kts 294°
2026-05-06 02:19 42.19883 14.23741 37987 ft 413 kts 294°
2026-05-06 02:19 42.22672 14.16971 37995 ft 412 kts 294°
2026-05-06 02:20 42.26360 14.07999 37996 ft 411 kts 294°
2026-05-06 02:21 42.29581 14.00141 38001 ft 411 kts 294°
2026-05-06 02:21 42.31901 13.94470 37997 ft 411 kts 294°
2026-05-06 02:22 42.35051 13.88003 37981 ft 421 kts 310°
2026-05-06 02:22 42.39326 13.82629 37965 ft 425 kts 311°
2026-05-06 02:23 42.43714 13.77192 37985 ft 429 kts 311°
2026-05-06 02:23 42.48138 13.71756 38004 ft 429 kts 311°
2026-05-06 02:24 42.52542 13.66337 37997 ft 427 kts 311°
2026-05-06 02:24 42.56941 13.60916 37993 ft 427 kts 311°
2026-05-06 02:25 42.61333 13.55493 38011 ft 428 kts 311°
2026-05-06 02:25 42.65728 13.50054 37996 ft 428 kts 311°
2026-05-06 02:26 42.69810 13.44250 38020 ft 419 kts 301°
2026-05-06 02:26 42.73396 13.37936 37978 ft 421 kts 302°
2026-05-06 02:27 42.76954 13.31657 38004 ft 422 kts 302°
2026-05-06 02:27 42.80534 13.25317 38005 ft 422 kts 301°
2026-05-06 02:28 42.84105 13.18980 37993 ft 422 kts 301°
2026-05-06 02:28 42.87677 13.12628 38062 ft 422 kts 301°
2026-05-06 02:29 42.91235 13.06286 37995 ft 421 kts 301°
2026-05-06 02:29 42.94797 12.99922 38008 ft 422 kts 301°
2026-05-06 02:30 42.98355 12.93553 37991 ft 421 kts 301°
2026-05-06 02:30 43.01881 12.87228 37993 ft 421 kts 301°
2026-05-06 02:31 43.05421 12.80865 38003 ft 422 kts 301°
2026-05-06 02:31 43.08975 12.74462 37987 ft 422 kts 301°
2026-05-06 02:32 43.12539 12.68027 38045 ft 425 kts 301°
2026-05-06 02:32 43.16084 12.61612 38005 ft 419 kts 301°
2026-05-06 02:33 43.19595 12.55246 37987 ft 419 kts 301°
2026-05-06 02:33 43.20751 12.53147 37993 ft 419 kts 301°
2026-05-06 02:34 43.26587 12.42526 37996 ft 419 kts 301°
2026-05-06 02:34 43.30071 12.36167 38024 ft 410 kts 300°
2026-05-06 02:35 43.33452 12.29984 37993 ft 403 kts 300°
2026-05-06 02:35 43.36809 12.23830 37994 ft 403 kts 300°
2026-05-06 02:36 43.40173 12.17652 37968 ft 402 kts 300°
2026-05-06 02:36 43.43499 12.11530 37989 ft 402 kts 300°
2026-05-06 02:37 43.46846 12.05357 37992 ft 402 kts 300°
2026-05-06 02:37 43.50190 11.99176 37982 ft 404 kts 299°
2026-05-06 02:38 43.53548 11.92957 37980 ft 405 kts 299°
2026-05-06 02:38 43.55560 11.89225 37986 ft 404 kts 299°
2026-05-06 02:39 43.58914 11.82992 37985 ft 404 kts 299°
2026-05-06 02:39 43.62263 11.76753 37978 ft 404 kts 298°
2026-05-06 02:40 43.65583 11.70557 38010 ft 407 kts 298°
2026-05-06 02:40 43.68943 11.64272 38011 ft 407 kts 298°
2026-05-06 02:41 43.72306 11.57968 37992 ft 406 kts 298°
2026-05-06 02:41 43.75677 11.51637 37977 ft 409 kts 298°
2026-05-06 02:42 43.79046 11.45295 37989 ft 409 kts 298°
2026-05-06 02:42 43.82403 11.38962 38010 ft 409 kts 298°
2026-05-06 02:43 43.85744 11.32646 38007 ft 408 kts 298°
2026-05-06 02:43 43.89092 11.26301 37494 ft 404 kts 297°
2026-05-06 02:43 43.90746 11.23165 36926 ft 400 kts 297°
2026-05-06 02:44 43.92378 11.20066 36459 ft 396 kts 297°
2026-05-06 02:44 43.93998 11.16989 35985 ft 393 kts 297°
2026-05-06 02:44 43.95595 11.13948 35515 ft 391 kts 297°
2026-05-06 02:44 43.97191 11.10909 35025 ft 389 kts 296°
2026-05-06 02:45 43.98781 11.07878 34522 ft 386 kts 296°
2026-05-06 02:45 44.00354 11.04876 34072 ft 383 kts 296°
2026-05-06 02:45 44.01934 11.01912 33688 ft 383 kts 300°
2026-05-06 02:45 44.03958 10.99380 32994 ft 401 kts 317°
2026-05-06 02:46 44.06311 10.97289 32546 ft 399 kts 317°
2026-05-06 02:46 44.08631 10.95198 32145 ft 395 kts 318°
2026-05-06 02:46 44.10942 10.93142 31783 ft 393 kts 319°
2026-05-06 02:46 44.13217 10.91132 31322 ft 393 kts 319°
2026-05-06 02:47 44.15534 10.89091 30835 ft 395 kts 320°
2026-05-06 02:47 44.17857 10.87045 30383 ft 395 kts 320°
2026-05-06 02:47 44.20184 10.84994 29923 ft 396 kts 320°
2026-05-06 02:47 44.22505 10.82945 29444 ft 396 kts 320°
2026-05-06 02:48 44.24829 10.80891 28987 ft 395 kts 320°
2026-05-06 02:48 44.27162 10.78817 28451 ft 397 kts 320°
2026-05-06 02:48 44.29483 10.76753 28079 ft 395 kts 320°
2026-05-06 02:48 44.31801 10.74691 27678 ft 394 kts 320°
2026-05-06 02:49 44.34095 10.72648 27234 ft 392 kts 320°
2026-05-06 02:49 44.36384 10.70607 26824 ft 388 kts 320°
2026-05-06 02:49 44.38657 10.68579 26432 ft 385 kts 321°
2026-05-06 02:49 44.40915 10.66562 26027 ft 383 kts 321°
2026-05-06 02:50 44.43151 10.64564 25622 ft 380 kts 321°
2026-05-06 02:50 44.45345 10.62599 25237 ft 377 kts 321°
2026-05-06 02:50 44.47547 10.60628 24849 ft 374 kts 320°
2026-05-06 02:50 44.49732 10.58669 24470 ft 372 kts 321°
2026-05-06 02:51 44.51908 10.56717 24092 ft 370 kts 320°
2026-05-06 02:51 44.54076 10.54770 23693 ft 369 kts 320°
2026-05-06 02:51 44.56226 10.52837 23253 ft 368 kts 321°
2026-05-06 02:51 44.58379 10.50900 22832 ft 366 kts 321°
2026-05-06 02:52 44.60512 10.48980 22452 ft 363 kts 321°
2026-05-06 02:52 44.62636 10.47066 22079 ft 360 kts 321°
2026-05-06 02:52 44.64737 10.45171 21690 ft 357 kts 321°
2026-05-06 02:52 44.66818 10.43292 21328 ft 354 kts 321°
2026-05-06 02:53 44.68883 10.41426 20964 ft 352 kts 321°
2026-05-06 02:53 44.70938 10.39567 20603 ft 350 kts 321°
2026-05-06 02:53 44.72977 10.37721 20244 ft 348 kts 321°
2026-05-06 02:53 44.75008 10.35882 19878 ft 346 kts 321°
2026-05-06 02:54 44.77053 10.34026 19129 ft 357 kts 321°
2026-05-06 02:54 44.79130 10.32144 18479 ft 359 kts 321°
2026-05-06 02:54 44.81236 10.30258 17779 ft 360 kts 325°
2026-05-06 02:54 44.83618 10.29046 17065 ft 370 kts 346°
2026-05-06 02:55 44.86175 10.28568 16357 ft 371 kts 348°
2026-05-06 02:55 44.88727 10.28066 15665 ft 370 kts 348°
2026-05-06 02:55 44.91278 10.27566 14984 ft 369 kts 349°
2026-05-06 02:55 44.93815 10.27069 14381 ft 366 kts 349°
2026-05-06 02:56 44.96313 10.26580 13925 ft 358 kts 349°
2026-05-06 02:56 44.98773 10.26097 13537 ft 356 kts 349°
2026-05-06 02:56 45.01205 10.25620 13155 ft 352 kts 349°
2026-05-06 02:56 45.03618 10.25146 12831 ft 348 kts 349°
2026-05-06 02:57 45.06003 10.24677 12497 ft 344 kts 349°
2026-05-06 02:57 45.08365 10.24212 12175 ft 340 kts 350°
2026-05-06 02:57 45.10705 10.23751 11861 ft 338 kts 350°
2026-05-06 02:57 45.12998 10.23299 11546 ft 337 kts 350°
2026-05-06 02:58 45.15354 10.22837 11211 ft 337 kts 351°
2026-05-06 02:58 45.17660 10.22419 10835 ft 340 kts 351°
2026-05-06 02:58 45.20022 10.21993 10464 ft 342 kts 351°
2026-05-06 02:58 45.22376 10.21566 10107 ft 337 kts 352°
2026-05-06 02:59 45.24655 10.21150 9871 ft 323 kts 352°
2026-05-06 02:59 45.26833 10.20752 9562 ft 310 kts 352°
2026-05-06 02:59 45.28937 10.20367 9244 ft 299 kts 351°
2026-05-06 02:59 45.30967 10.19996 8961 ft 290 kts 351°
2026-05-06 03:00 45.32945 10.19635 8666 ft 283 kts 351°
2026-05-06 03:00 45.34883 10.19279 8340 ft 278 kts 351°
2026-05-06 03:00 45.36798 10.18929 8054 ft 276 kts 352°
2026-05-06 03:00 45.38688 10.18582 7770 ft 273 kts 352°
2026-05-06 03:01 45.40537 10.18243 7491 ft 270 kts 352°
2026-05-06 03:01 45.42388 10.17903 7242 ft 267 kts 352°
2026-05-06 03:01 45.44216 10.17566 6977 ft 264 kts 352°
2026-05-06 03:01 45.46057 10.17227 6710 ft 270 kts 352°
2026-05-06 03:02 45.47933 10.16882 6439 ft 274 kts 352°
2026-05-06 03:02 45.49819 10.16535 6139 ft 275 kts 352°
2026-05-06 03:02 45.51675 10.15924 5810 ft 274 kts 333°
2026-05-06 03:02 45.53148 10.14261 5463 ft 272 kts 308°
2026-05-06 03:03 45.54240 10.12091 5247 ft 266 kts 304°
2026-05-06 03:03 45.55283 10.09971 5148 ft 256 kts 304°
2026-05-06 03:03 45.56285 10.07909 5021 ft 250 kts 304°
2026-05-06 03:03 45.57245 10.05918 4903 ft 236 kts 304°
2026-05-06 03:04 45.58151 10.04030 4732 ft 225 kts 304°
2026-05-06 03:04 45.58985 10.02285 4581 ft 214 kts 304°
2026-05-06 03:04 45.59799 10.00578 4428 ft 202 kts 304°
2026-05-06 03:04 45.60567 9.98966 4305 ft 188 kts 304°
2026-05-06 03:05 45.61268 9.97492 4204 ft 176 kts 304°
2026-05-06 03:05 45.61862 9.95973 4049 ft 175 kts 294°
2026-05-06 03:05 45.62305 9.94365 3852 ft 173 kts 288°
2026-05-06 03:05 45.62660 9.92764 3637 ft 166 kts 286°
2026-05-06 03:06 45.62973 9.91173 3477 ft 166 kts 285°
2026-05-06 03:06 45.63267 9.89611 3285 ft 159 kts 284°
2026-05-06 03:06 45.63550 9.88094 3062 ft 157 kts 285°
2026-05-06 03:06 45.63830 9.86592 2857 ft 157 kts 284°
2026-05-06 03:07 45.64110 9.85087 2633 ft 156 kts 284°
2026-05-06 03:07 45.64295 9.84090 2498 ft 156 kts 285°
2026-05-06 03:07 45.64667 9.82089 2224 ft 155 kts 285°
2026-05-06 03:07 45.64945 9.80596 2015 ft 155 kts 285°
2026-05-06 03:08 45.65127 9.79612 1870 ft 154 kts 285°
2026-05-06 03:08 45.65399 9.78142 1638 ft 151 kts 285°
2026-05-06 03:08 45.65664 9.76704 1409 ft 149 kts 284°
2026-05-06 03:08 45.65928 9.75296 1231 ft 144 kts 284°
2026-05-06 03:09 45.66189 9.73920 1025 ft 143 kts 284°
2026-05-06 03:09 45.66449 9.72520 833 ft 146 kts 285°
2026-05-06 03:09 45.66688 9.71210 790 ft 116 kts 284°
2026-05-06 03:09 45.66849 9.70339 790 ft 70 kts 285°
2026-05-06 03:10 45.66953 9.69783 790 ft 38 kts 285°
2026-05-06 03:10 45.67008 9.69486 789 ft 28 kts 284°
2026-05-06 03:10 45.67049 9.69266 789 ft 17 kts 285°
2026-05-06 03:10 45.67065 9.69090 789 ft 19 kts 261°
2026-05-06 03:11 45.67057 9.69062 790 ft 2 kts 238°
2026-05-06 03:11 45.67044 9.69035 789 ft 4 kts 229°
2026-05-06 03:11 45.67010 9.69015 790 ft 7 kts 191°
2026-05-06 03:11 45.66981 9.68999 790 ft 5 kts 203°
2026-05-06 03:12 45.66960 9.68990 790 ft 2 kts 184°
2026-05-06 03:12 45.66937 9.68989 790 ft 5 kts 173°
2026-05-06 03:12 45.66912 9.69021 790 ft 6 kts 105°
2026-05-06 03:12 45.66905 9.69091 790 ft 8 kts 97°
2026-05-06 03:13 45.66900 9.69137 790 ft 5 kts 100°
2026-05-06 03:13 45.66891 9.69191 790 ft 6 kts 112°
2026-05-06 03:13 45.66861 9.69202 790 ft 5 kts 196°
2026-05-06 03:13 45.66824 9.69185 790 ft 2 kts 195°
2026-05-06 03:14 45.66813 9.69181 790 ft 0 kts 195°